Torna al catalogo

ARIANE 1 DEB

AttivoHEO
NORAD 40781·DEBRIS·🇫🇷 France

Lanciato Dec 24, 1979 da Guiana Space Centre

Loading…

Prossimi Passaggi (prossime 24 ore)

TLE

AggiornatoSource: Space-Track

Epoca: Sep 11, 2026, 09:46 UTC

1 40781U 79104AJ  26254.40744373  .00000699  00000-0  28613-2 0  9998
2 40781  19.1016 327.9224 6498825 210.8553  85.2623  3.16840776 26179

Traccia ARIANE 1 DEB in tempo reale con AllMySat

Download on the App Store